Tracking 28790 objects as of 19-Apr-2024
HD Live streaming from Space Station
objects crossing your sky now

COSMOS 2251 DEB

Track COSMOS 2251 DEB now!
10-day predictions


NORAD ID: 35031
Int'l Code: 1993-036AGU
Perigee: 761.8 km
Apogee: 789.5 km
Inclination: 74.0 °
Period: 100.2 minutes
Semi major axis: 7146 km
RCS: 0.008 m2 (small)
Launch date: June 16, 1993
Source: Commonwealth of Independent States (former USSR) (CIS)
Launch site: PLESETSK MISSILE AND SPACE COMPLEX (PKMTR)

Note: This is SATELLITE DEBRIS
Your satellite tracking list
Your tracking list is empty




NASA's NSSDC Master Catalog

Two Line Element Set (TLE):
1 35031U 93036AGU 24106.86126169  .00000983  00000-0  33983-3 0  9994
2 35031  74.0370 294.4969 0019387 181.7810 178.3278 14.36974893565761
Source of the keplerian elements: AFSPC